Location: Newark
(49.3667°N, 21.6167°E)
Time: 06:30:49
(UTC+00:00)

Envisat - Pass Details

Date: 16 December 2019
Orbit: 764 x 766 km, 98.1° (Epoch: 27 January)

Event Time Altitude Azimuth Distance (km) Brightness Sun altitude
Rises 04:15:42 0° 25° (NNE) 3,246 6.4 -19.5°
Reaches altitude 10° 04:18:36 10° 42° (NE) 2,313 5.8 -19.1°
Maximum altitude 04:22:23 21° 90° (E) 1,690 5.7 -18.5°
Drops below altitude 10° 04:26:08 10° 138° (SE) 2,299 6.3 -17.9°
Sets 04:28:59 0° 155° (SSE) 3,219 6.8 -17.5°
